TimeCST,TemperatureF,Dew PointF,Humidity,Sea Level PressureIn,VisibilityMPH,Wind Direction,Wind SpeedMPH,Gust SpeedMPH,PrecipitationIn,Events,Conditions,WindDirDegrees,DateUTC
12:14 AM,19.4,17.6,93,29.75,10.0,ESE,19.6,-,N/A,,Overcast,120,2014-02-17 06:14:00
12:34 AM,19.4,17.6,93,29.74,10.0,ESE,20.7,25.3,N/A,,Overcast,120,2014-02-17 06:34:00
12:54 AM,21.2,17.6,86,29.75,10.0,ESE,20.7,24.2,N/A,,Overcast,120,2014-02-17 06:54:00
1:14 AM,21.2,17.6,86,29.74,10.0,ESE,20.7,-,N/A,,Overcast,120,2014-02-17 07:14:00
1:34 AM,21.2,17.6,86,29.73,7.0,ESE,20.7,-,N/A,,Overcast,120,2014-02-17 07:34:00
1:54 AM,21.2,17.6,86,29.72,7.0,SE,18.4,-,N/A,,Overcast,130,2014-02-17 07:54:00
2:14 AM,21.2,19.4,93,29.71,7.0,SE,18.4,-,N/A,,Overcast,130,2014-02-17 08:14:00
2:34 AM,21.2,19.4,93,29.70,7.0,ESE,16.1,-,N/A,,Overcast,120,2014-02-17 08:34:00
2:54 AM,21.2,19.4,93,29.69,7.0,SE,16.1,-,N/A,,Overcast,130,2014-02-17 08:54:00
3:14 AM,21.2,19.4,93,29.69,4.0,SE,17.3,-,N/A,Snow,Light Snow,130,2014-02-17 09:14:00
3:34 AM,23.0,19.4,86,29.68,5.0,SE,16.1,-,N/A,Snow,Light Snow,130,2014-02-17 09:34:00
3:54 AM,23.0,21.2,93,29.68,7.0,SE,12.7,-,N/A,,Overcast,130,2014-02-17 09:54:00
4:14 AM,23.0,21.2,93,29.68,2.5,SE,10.4,13.8,N/A,Snow,Light Snow,130,2014-02-17 10:14:00
4:34 AM,23.0,21.2,93,29.69,1.0,SE,10.4,-,N/A,Snow,Snow,140,2014-02-17 10:34:00
4:54 AM,23.0,21.2,93,29.69,0.8,SSW,4.6,-,0.04,Snow,Snow,200,2014-02-17 10:54:00
5:14 AM,24.8,21.2,86,29.69,0.8,Calm,Calm,-,N/A,Snow,Snow,0,2014-02-17 11:14:00
5:34 AM,24.8,21.2,86,29.69,1.5,Calm,Calm,-,N/A,Snow,Light Snow,0,2014-02-17 11:34:00
5:54 AM,24.8,21.2,86,29.69,3.0,Calm,Calm,-,0.08,Snow,Light Snow,0,2014-02-17 11:54:00
6:14 AM,23.0,21.2,93,29.70,3.0,WSW,3.5,-,N/A,Snow,Light Snow,240,2014-02-17 12:14:00
6:34 AM,24.8,21.2,86,29.69,2.0,Calm,Calm,-,N/A,Snow,Light Snow,0,2014-02-17 12:34:00
6:54 AM,23.0,21.2,93,29.68,3.0,Calm,Calm,-,N/A,Snow,Light Snow,0,2014-02-17 12:54:00
7:14 AM,23.0,21.2,93,29.67,5.0,Calm,Calm,-,N/A,,Mostly Cloudy,0,2014-02-17 13:14:00
7:34 AM,23.0,21.2,93,29.68,5.0,Calm,Calm,-,N/A,,Mostly Cloudy,0,2014-02-17 13:34:00
7:54 AM,23.0,21.2,93,29.67,5.0,Calm,Calm,-,N/A,,Mostly Cloudy,0,2014-02-17 13:54:00
8:14 AM,24.8,21.2,86,29.69,5.0,West,3.5,-,N/A,,Overcast,260,2014-02-17 14:14:00
8:34 AM,24.8,21.2,86,29.69,7.0,West,6.9,-,N/A,,Scattered Clouds,270,2014-02-17 14:34:00
8:54 AM,23.0,21.2,93,29.69,7.0,West,3.5,-,N/A,,Clear,280,2014-02-17 14:54:00
9:14 AM,23.0,21.2,93,29.69,7.0,West,3.5,-,N/A,,Clear,260,2014-02-17 15:14:00
9:35 AM,26.6,23.0,86,29.69,7.0,West,3.5,-,N/A,,Clear,260,2014-02-17 15:35:00
9:54 AM,26.6,23.0,86,29.69,10.0,West,4.6,-,N/A,,Clear,270,2014-02-17 15:54:00
10:14 AM,28.4,24.8,86,29.69,10.0,West,5.8,-,N/A,,Clear,260,2014-02-17 16:14:00
10:34 AM,30.2,24.8,80,29.70,10.0,West,6.9,-,N/A,,Clear,270,2014-02-17 16:34:00
10:54 AM,33.8,26.6,75,29.70,5.0,West,13.8,20.7,N/A,,Haze,280,2014-02-17 16:54:00
11:14 AM,33.8,26.6,75,29.71,4.0,West,16.1,23.0,N/A,Rain,Light Rain,280,2014-02-17 17:14:00
11:34 AM,33.8,26.6,75,29.71,7.0,West,18.4,23.0,N/A,,Clear,280,2014-02-17 17:34:00
11:54 AM,35.6,26.6,70,29.72,7.0,West,17.3,24.2,N/A,,Clear,280,2014-02-17 17:54:00
12:59 PM,35.6,28.4,75,29.71,10.0,WNW,16.1,23.0,N/A,,Clear,290,2014-02-17 18:59:00
1:14 PM,37.4,28.4,70,29.73,10.0,WNW,15.0,23.0,N/A,,Clear,290,2014-02-17 19:14:00
1:34 PM,37.4,28.4,70,29.72,10.0,WNW,15.0,21.9,N/A,,Clear,290,2014-02-17 19:34:00
1:54 PM,37.4,28.4,70,29.72,10.0,WNW,13.8,20.7,N/A,,Clear,300,2014-02-17 19:54:00
2:14 PM,37.4,28.4,70,29.71,10.0,WNW,13.8,-,N/A,,Clear,290,2014-02-17 20:14:00
2:34 PM,39.2,30.2,70,29.71,10.0,West,12.7,-,N/A,,Clear,280,2014-02-17 20:34:00
2:54 PM,39.2,30.2,70,29.71,10.0,WNW,11.5,-,N/A,,Clear,290,2014-02-17 20:54:00
3:14 PM,39.2,30.2,70,29.72,10.0,West,10.4,-,N/A,,Clear,280,2014-02-17 21:14:00
3:34 PM,39.2,30.2,70,29.72,10.0,West,6.9,-,N/A,,Clear,280,2014-02-17 21:34:00
3:54 PM,39.2,30.2,70,29.73,10.0,West,4.6,-,N/A,,Clear,260,2014-02-17 21:54:00
4:14 PM,39.2,30.2,70,29.73,10.0,WSW,8.1,-,N/A,,Clear,250,2014-02-17 22:14:00
4:34 PM,39.2,30.2,70,29.73,10.0,WSW,8.1,-,N/A,,Clear,250,2014-02-17 22:34:00
4:54 PM,37.4,30.2,75,29.73,10.0,SW,8.1,-,N/A,,Clear,230,2014-02-17 22:54:00
5:14 PM,37.4,30.2,75,29.73,10.0,WSW,6.9,-,N/A,,Clear,240,2014-02-17 23:14:00
5:34 PM,37.4,28.4,70,29.72,10.0,WSW,6.9,-,N/A,,Clear,240,2014-02-17 23:34:00
5:54 PM,33.8,28.4,81,29.72,10.0,WSW,6.9,-,N/A,,Clear,240,2014-02-17 23:54:00
6:14 PM,33.8,28.4,81,29.71,10.0,WSW,6.9,-,N/A,,Clear,240,2014-02-18 00:14:00
6:34 PM,33.8,28.4,81,29.71,10.0,SW,9.2,-,N/A,,Clear,230,2014-02-18 00:34:00
6:54 PM,33.8,26.6,75,29.71,10.0,SW,9.2,-,N/A,,Clear,220,2014-02-18 00:54:00
7:14 PM,35.6,26.6,70,29.69,10.0,SSW,9.2,-,N/A,,Clear,210,2014-02-18 01:14:00
7:34 PM,35.6,28.4,75,29.68,10.0,SSW,11.5,-,N/A,,Clear,200,2014-02-18 01:34:00
7:54 PM,33.8,28.4,81,29.68,10.0,South,11.5,-,N/A,,Clear,190,2014-02-18 01:54:00
8:14 PM,35.6,28.4,75,29.67,10.0,SSW,11.5,-,N/A,,Clear,200,2014-02-18 02:14:00
8:34 PM,35.6,28.4,75,29.67,10.0,SSW,11.5,-,N/A,,Clear,210,2014-02-18 02:34:00
8:54 PM,33.8,28.4,81,29.67,10.0,SSW,9.2,-,N/A,,Clear,200,2014-02-18 02:54:00
9:14 PM,32.0,26.6,80,29.67,10.0,South,9.2,-,N/A,,Clear,190,2014-02-18 03:14:00
9:34 PM,32.0,26.6,80,29.65,10.0,South,10.4,-,N/A,,Clear,180,2014-02-18 03:34:00
9:54 PM,33.8,26.6,75,29.65,10.0,South,9.2,-,N/A,,Clear,170,2014-02-18 03:54:00
10:14 PM,33.8,26.6,75,29.64,10.0,South,11.5,-,N/A,,Clear,180,2014-02-18 04:14:00
10:34 PM,33.8,26.6,75,29.63,10.0,South,10.4,-,N/A,,Clear,170,2014-02-18 04:34:00
10:54 PM,33.8,26.6,75,29.62,10.0,South,11.5,-,N/A,,Clear,170,2014-02-18 04:54:00
11:14 PM,33.8,26.6,75,29.61,10.0,South,12.7,-,N/A,,Clear,170,2014-02-18 05:14:00
11:34 PM,32.0,26.6,80,29.61,10.0,South,12.7,-,N/A,,Clear,180,2014-02-18 05:34:00
11:54 PM,33.8,26.6,75,29.60,10.0,South,13.8,-,N/A,,Clear,180,2014-02-18 05:54:00